SCP
0 0 0 0 0 0 0 0 0 0 0 0 0 0 0 0 0 0 0 0 0 0 0 0 0 0 0 0 0 -0 -0 -0 -0 -0 -0 -0 -0 0 -0 -0 -0 0 0
0 0 0 0 0 0 0 0 0 0 0 0 0 0 0 0 0 0 0 0 -0 0 0 0 0 0 0 0 0 0 -0 -0 -0 -0 -0 -0 -0 -0 -0 -0 -0 -0 -0
0 0 0 0 0 0 0 0 0 0 0 0 0 0 0 0 0 0 0 0 0 0 0 0 0 0 0 0 0 0 0 0 0 0 0 0 0 0 0 0 0 0 0
0 0 0 0 0 0 0 0 0 0 0 0 0 0 0 0 0 0 0 0 0 0 0 0 0 0 0 0 0 0 0 0 0 0 0 0 0 0 0 0 -0 0 0
0 0 0 0 0 0 0 0 0 0 0 0 0 0 0 0 0 0 0 0 0 0 0 0 0 0 0 0 0 0 0 0 0 0 0 0 0 0 0 0 -0 -0 0
0 0 0 0 0 0 0 0 0 0 0 0 0 0 0 0 0 0 0 0 0 0 0 0 0 0 0 0 0 0 0 0 0 0 0 0 0 0 0 0 0 0 0
0 0 0 0 0 0 0 0 0 0 0 0 0 0 0 0 0 0 0 0 0 0 0 0 0 0 0 0 0 0 0 0 0 0 0 0 0 0 0 0 0 0 0
0 0 0 0 0 0 0 0 0 0 0 0 0 0 0 0 0 0 0 0 0 0 0 0 0 0 0 0 0 0 0 0 0 0 0 0 0 0 0 0 0 0 0
0 0 0 0 0 0 0 0 0 0 0 0 0 0 0 0 0 0 0 0 0 0 0 0 0 0 0 0 0 0 0 0 0 0 0 0 0 0 0 0 0 0 0
0 0 0 0 0 0 0 0 0 0 0 0 0 0 0 0 0 0 0 0 0 0 0 0 0 0 0 0 0 0 0 0 0 0 0 0 0 0 0 0 0 -0 0
0 0 0 0 0 0 0 0 0 0 0 0 0 0 0 0 0 0 0 0 0 0 0 0 0 0 0 0 0 0 0 0 0 0 0 0 0 0 0 -0 -0 -0 0
0 0 0 0 0 0 0 0 0 0 0 0 0 0 0 0 0 0 0 0 0 0 0 0 0 0 0 0 0 0 0 0 0 0 0 0 0 -0 -0 -0 -0 -0 -0
0 0 0 0 0 0 0 0 0 0 0 0 0 0 0 0 0 0 0 0 0 0 0 0 0 0 0 0 0 0 0 0 0 0 0 -0 -0 -0 0 0 0 -0 -0
0 0 0 0 0 0 0 0 0 0 0 0 0 0 0 0 0 0 0 0 0 0 0 0 0 0 0 0 0 0 0 0 0 0 0 0 0 0 0 0 0 0 -0
0 0 0 0 0 0 0 0 0 0 0 0 0 0 0 0 0 0 0 0 0 0 0 0 0 0 0 0 0 0 0 0 0 0 0 0 0 0 0 0 0 0 0
0 0 0 0 0 0 0 0 0 0 0 0 0 0 0 0 0 0 0 0 0 0 0 0 0 0 0 0 0 0 0 0 0 0 0 0 0 0 0 0 0 0 0
0 0 0 0 0 0 0 0 0 0 0 0 0 0 0 0 0 0 0 0 0 0 0 0 0 0 0 0 0 0 0 0 0 0 0 0 0 0 0 0 0 0 0
0 0 0 0 0 0 0 0 0 0 0 0 0 0 0 0 0 0 0 0 0 0 0 0 0 0 0 0 0 0 0 0 0 0 0 0 0 0 0 0 0 0 -0
0 0 0 0 0 0 0 0 0 0 0 0 0 0 0 0 0 0 0 0 0 0 0 0 0 0 0 -0 0 0 0 0 0 0 0 0 0 0 0 0 0 0 -0
0 0 0 0 0 0 0 0 0 0 0 0 0 0 0 0 0 0 0 0 0 0 0 0 0 0 0 -0 -0 0 0 0 0 0 0 0 0 0 0 0 0 0 -0
0 0 0 0 0 0 0 0 0 0 0 0 0 0 0 0 0 0 0 0 0 0 0 0 0 0 0 0 -0 0 0 0 0 0 0 0 0 0 0 0 0 0 0
0 0 0 0 0 0 0 0 0 0 0 0 0 0 0 0 0 0 0 0 0 0 0 0 0 0 0 -0 0 -0 -0 0 0 0 0 0 -0 -0 0 0 0 0 0
0 0 0 0 0 0 0 0 0 0 0 0 0 0 0 0 0 0 0 0 0 0 0 0 0 0 0 0 -0 -0 -0 0 0 0 -0 -0 -0 -0 0 0 0 0 0
0 0 0 0 0 0 0 0 0 0 0 0 0 0 0 0 0 0 0 0 0 0 0 0 0 0 0 0 -0 -0 -0 0 0 0 0 -0 0 0 0 0 0 0 0
0 0 0 0 0 0 0 0 0 0 0 0 0 0 0 0 0 0 0 0 0 0 0 0 0 0 0 -0 -0 -0 -0 0 0 0 0 0 0 0 0 0 0 0 0
0 0 0 0 0 0 0 0 0 0 0 0 0 0 0 0 0 0 0 0 0 0 0 0 0 0 0 -0 -0 0 -0 -0 -0 0 -0 0 0 0 0 0 0 0 0
Wind_Speed_500mb
81 83 83 80 74 68 64 55 46 39 34 29 24 19 18 23 30 36 39 42 46 51 60 66 69 71 73 75 77 82 87 87 85 96 104 115 113 104 97 99 103 98 92
74 79 89 89 87 80 69 61 51 44 37 31 26 23 21 27 34 37 40 46 51 54 62 66 68 70 75 78 80 81 88 91 85 77 80 77 95 87 52 55 73 85 77
65 70 83 98 95 88 78 66 55 46 38 32 28 27 27 31 36 40 43 46 51 53 60 62 65 68 73 78 80 82 84 90 92 75 49 34 42 74 87 68 62 70 69
56 60 68 92 103 96 80 67 57 50 42 35 30 28 31 37 42 47 50 51 52 56 61 65 67 69 72 74 78 83 87 88 95 80 57 65 81 56 81 69 57 59 92
45 50 59 69 96 97 86 71 61 54 46 37 32 32 34 41 46 49 54 55 58 62 63 66 68 69 72 74 78 83 88 89 93 87 80 58 64 78 88 102 87 78 90
31 40 48 55 76 96 85 75 67 59 51 40 36 35 37 43 48 52 57 59 65 67 65 65 67 69 72 77 81 86 90 91 95 90 80 80 69 76 69 85 82 87 92
34 38 46 55 68 86 95 84 73 65 55 45 40 36 40 45 50 52 57 61 68 68 67 68 69 71 74 79 84 90 94 94 92 90 93 93 90 88 94 90 103 86 88
33 38 42 51 61 74 98 89 77 66 57 49 40 37 41 45 48 51 57 63 68 70 70 70 73 76 80 83 89 95 99 97 94 92 84 78 86 77 76 82 75 89 86
38 38 42 52 60 70 98 92 76 66 60 49 40 38 41 44 48 50 55 63 65 69 71 72 76 81 84 89 93 99 100 95 87 83 81 81 85 78 102 90 82 92 85
34 37 46 49 58 68 91 86 75 68 58 46 40 39 40 43 47 50 55 61 65 69 73 75 79 84 87 91 93 100 98 88 87 80 79 80 77 72 72 70 103 79 90
33 40 43 47 57 67 91 88 77 68 54 45 39 38 39 41 45 50 56 63 69 71 75 80 85 87 91 93 96 95 95 85 79 76 75 78 72 82 82 95 79 85 105
35 41 49 52 60 77 95 90 77 66 52 41 36 36 37 40 44 50 56 62 70 74 77 82 86 90 94 97 95 95 90 78 80 72 72 75 70 75 80 84 84 102 104
45 54 59 64 68 85 98 88 74 60 48 39 35 34 36 39 44 50 56 63 70 75 77 82 85 89 93 97 95 91 89 79 74 71 72 68 67 79 73 74 76 70 86
68 68 66 71 72 88 98 84 69 57 47 38 32 31 33 38 44 51 58 65 71 76 79 82 86 87 91 94 90 80 72 73 78 78 76 77 75 71 76 80 76 76 75
65 66 68 71 77 89 93 79 66 54 42 35 30 28 31 38 45 52 60 65 69 73 76 81 84 85 88 89 78 72 79 82 84 80 80 78 78 75 71 72 74 80 78
87 76 68 71 80 86 95 78 63 50 39 32 26 25 30 38 47 54 59 63 69 71 74 77 81 83 83 81 68 69 77 79 84 86 81 81 83 84 74 78 82 80 81
83 69 66 71 73 84 95 77 60 46 36 26 21 23 31 39 47 54 58 62 66 69 71 74 78 80 78 73 67 70 75 79 81 81 83 80 81 85 87 76 76 81 84
76 64 58 60 66 78 85 69 54 40 27 18 16 22 32 42 48 51 55 59 63 66 70 73 75 78 77 71 68 71 77 80 72 68 77 82 77 78 87 82 78 76 88
70 55 55 61 64 82 79 62 46 34 23 13 15 24 33 40 46 49 53 56 61 63 67 72 75 78 83 71 70 71 75 80 83 75 72 74 77 75 74 72 77 81 90
49 49 54 58 68 84 71 56 44 30 18 10 14 24 32 39 43 46 49 53 56 63 68 72 74 82 85 74 67 72 81 79 81 78 77 69 70 68 63 67 72 84 92
41 47 54 68 86 78 64 52 40 28 16 8 13 22 29 35 40 41 47 51 54 61 69 77 82 86 85 82 63 74 79 81 86 85 83 85 75 61 62 63 71 83 68
50 59 70 86 80 68 59 50 39 27 14 7 13 20 25 31 35 42 46 48 52 62 72 79 86 87 87 72 74 77 76 79 87 90 84 82 68 66 59 57 61 69 67
61 72 89 89 77 67 56 48 37 24 13 5 10 15 21 28 33 38 43 47 52 63 73 77 83 89 91 82 82 88 86 82 73 76 73 68 66 66 66 59 57 58 66
71 88 94 89 80 69 60 48 37 25 14 4 6 11 15 20 27 34 39 45 52 58 66 71 76 81 86 94 96 99 101 83 84 79 60 41 43 44 50 47 49 54 62
83 95 95 87 77 69 58 47 35 25 13 5 5 11 17 20 21 28 35 42 45 45 50 56 60 77 85 88 84 86 83 73 77 57 49 38 22 17 27 33 41 38 38
100 102 92 85 78 69 57 45 33 20 10 4 3 7 16 22 23 22 22 31 37 41 41 43 46 58 57 70 75 76 67 64 65 56 69 63 51 36 24 18 27 37 47
Wind_Direction_500mb
245 235 230 227 224 224 225 228 231 234 237 239 248 267 296 319 326 328 321 317 323 328 323 319 318 318 317 317 318 317 317 315 315 312 310 305 300 296 294 293 290 284 271
247 240 231 227 226 226 224 225 228 233 235 239 250 269 296 312 323 322 318 321 323 324 317 315 316 317 317 318 318 317 315 313 316 313 311 309 302 301 300 289 288 284 279
249 243 231 226 224 223 223 224 228 230 234 240 255 275 295 307 315 317 320 321 317 317 314 315 316 317 317 317 316 315 313 310 307 306 288 292 280 305 288 280 265 272 270
247 246 238 229 225 224 221 224 226 229 233 242 257 276 294 306 316 318 319 315 318 321 319 318 317 315 312 312 312 312 309 307 305 302 281 265 269 284 296 286 283 272 263
249 249 247 239 231 224 220 221 225 227 233 246 261 277 293 306 313 314 312 316 322 318 317 316 314 312 310 309 309 307 305 302 301 297 293 282 273 271 265 281 281 276 273
255 256 253 243 235 224 219 221 223 228 233 246 264 279 294 301 308 312 316 320 318 318 318 315 312 311 310 309 308 306 303 301 299 295 286 277 270 268 266 265 276 269 270
263 252 243 237 233 224 217 219 222 226 232 243 258 276 290 300 306 313 314 318 316 317 318 314 312 312 311 310 309 306 304 301 296 290 288 288 280 270 264 263 268 279 268
251 249 246 246 237 224 218 220 221 224 232 243 258 275 288 298 306 310 314 316 316 317 316 316 316 316 314 312 309 307 306 302 296 291 280 278 275 270 265 258 267 267 274
252 252 249 247 237 226 218 220 220 225 232 243 259 275 287 298 303 309 314 313 314 315 318 319 317 316 314 313 311 308 305 299 292 283 279 276 281 277 257 252 260 261 274
242 247 249 248 238 229 218 219 222 227 233 245 260 274 287 295 304 311 313 313 316 319 319 319 317 315 314 313 310 307 303 294 289 281 278 278 277 269 269 272 252 264 262
250 245 252 255 239 226 217 218 221 225 233 247 263 278 290 301 308 314 316 317 317 318 318 316 314 315 315 313 309 306 301 294 288 284 281 279 275 276 274 260 254 258 253
251 246 263 251 232 218 217 217 219 224 232 246 264 280 292 301 308 312 314 316 318 318 317 316 315 316 314 313 310 307 301 294 290 285 281 280 277 274 271 267 262 255 248
254 256 249 239 229 218 216 216 217 221 232 247 262 277 290 301 309 313 317 318 318 318 318 316 315 315 315 314 312 306 303 294 286 285 283 283 278 276 274 268 258 262 259
266 261 247 239 230 221 215 213 212 221 233 247 264 277 293 304 310 316 319 320 320 320 319 318 317 317 317 316 314 305 298 294 294 289 286 291 290 279 272 270 258 261 264
261 256 250 240 229 219 210 210 212 220 232 247 260 279 295 306 314 319 320 321 321 321 321 319 319 321 318 318 313 305 299 295 292 290 289 283 284 278 270 266 262 261 257
269 267 256 243 232 220 206 204 210 219 231 245 262 282 302 313 319 321 322 323 322 323 322 321 321 322 323 323 307 302 298 293 289 288 288 286 281 278 270 262 257 255 258
267 265 255 242 231 217 204 201 207 216 226 242 267 296 311 317 322 326 325 325 325 325 324 324 325 326 330 325 313 306 299 297 294 290 288 289 283 278 271 270 258 253 252
269 265 246 230 219 212 197 198 203 210 219 239 276 304 318 323 326 327 328 329 328 326 326 328 331 332 336 328 317 313 303 299 296 294 291 282 284 285 269 262 261 254 244
270 256 236 222 209 194 190 192 196 201 208 236 294 317 322 327 329 331 332 331 329 327 328 334 336 338 342 331 319 318 315 308 302 302 297 285 294 293 264 257 257 255 244
240 224 214 202 193 184 186 187 187 190 200 243 304 319 325 332 330 332 332 333 328 330 335 337 344 345 341 334 322 324 316 313 309 308 303 295 289 287 269 253 251 252 249
220 204 196 189 181 179 180 181 180 181 197 249 307 323 331 329 326 332 332 330 334 336 340 344 349 345 344 339 326 327 321 316 310 304 299 292 287 283 269 256 253 247 251
196 194 184 178 176 178 179 177 176 178 190 261 318 331 329 326 328 333 330 331 343 343 344 349 346 345 341 337 330 330 325 319 311 306 300 290 281 273 272 262 254 249 243
193 188 179 175 174 175 176 175 175 177 195 251 324 327 329 326 333 335 332 342 352 350 349 348 344 341 343 336 339 335 332 327 322 318 306 291 283 277 270 264 249 245 241
191 183 179 176 174 174 175 178 177 184 197 221 304 316 325 331 338 336 341 351 356 354 350 347 344 338 342 342 343 340 337 338 340 333 334 314 280 273 273 274 252 246 252
190 185 182 178 177 175 177 179 184 188 192 218 299 327 335 340 348 345 352 358 358 357 346 347 345 348 342 345 342 343 341 345 344 351 9 18 25 334 286 276 266 270 255
187 184 183 182 177 176 178 181 184 187 198 224 316 337 338 340 350 2 19 5 358 356 358 354 348 349 348 348 351 352 353 356 359 17 16 14 16 15 353 303 261 255 265
Wind_Speed_850mb
81 83 83 80 74 68 64 55 46 39 34 29 24 19 18 23 30 36 39 42 46 51 60 66 69 71 73 75 77 82 87 87 85 96 104 115 113 104 97 99 103 98 92
74 79 89 89 87 80 69 61 51 44 37 31 26 23 21 27 34 37 40 46 51 54 62 66 68 70 75 78 80 81 88 91 85 77 80 77 95 87 52 55 73 85 77
65 70 83 98 95 88 78 66 55 46 38 32 28 27 27 31 36 40 43 46 51 53 60 62 65 68 73 78 80 82 84 90 92 75 49 34 42 74 87 68 62 70 69
56 60 68 92 103 96 80 67 57 50 42 35 30 28 31 37 42 47 50 51 52 56 61 65 67 69 72 74 78 83 87 88 95 80 57 65 81 56 81 69 57 59 92
45 50 59 69 96 97 86 71 61 54 46 37 32 32 34 41 46 49 54 55 58 62 63 66 68 69 72 74 78 83 88 89 93 87 80 58 64 78 88 102 87 78 90
31 40 48 55 76 96 85 75 67 59 51 40 36 35 37 43 48 52 57 59 65 67 65 65 67 69 72 77 81 86 90 91 95 90 80 80 69 76 69 85 82 87 92
34 38 46 55 68 86 95 84 73 65 55 45 40 36 40 45 50 52 57 61 68 68 67 68 69 71 74 79 84 90 94 94 92 90 93 93 90 88 94 90 103 86 88
33 38 42 51 61 74 98 89 77 66 57 49 40 37 41 45 48 51 57 63 68 70 70 70 73 76 80 83 89 95 99 97 94 92 84 78 86 77 76 82 75 89 86
38 38 42 52 60 70 98 92 76 66 60 49 40 38 41 44 48 50 55 63 65 69 71 72 76 81 84 89 93 99 100 95 87 83 81 81 85 78 102 90 82 92 85
34 37 46 49 58 68 91 86 75 68 58 46 40 39 40 43 47 50 55 61 65 69 73 75 79 84 87 91 93 100 98 88 87 80 79 80 77 72 72 70 103 79 90
33 40 43 47 57 67 91 88 77 68 54 45 39 38 39 41 45 50 56 63 69 71 75 80 85 87 91 93 96 95 95 85 79 76 75 78 72 82 82 95 79 85 105
35 41 49 52 60 77 95 90 77 66 52 41 36 36 37 40 44 50 56 62 70 74 77 82 86 90 94 97 95 95 90 78 80 72 72 75 70 75 80 84 84 102 104
45 54 59 64 68 85 98 88 74 60 48 39 35 34 36 39 44 50 56 63 70 75 77 82 85 89 93 97 95 91 89 79 74 71 72 68 67 79 73 74 76 70 86
68 68 66 71 72 88 98 84 69 57 47 38 32 31 33 38 44 51 58 65 71 76 79 82 86 87 91 94 90 80 72 73 78 78 76 77 75 71 76 80 76 76 75
65 66 68 71 77 89 93 79 66 54 42 35 30 28 31 38 45 52 60 65 69 73 76 81 84 85 88 89 78 72 79 82 84 80 80 78 78 75 71 72 74 80 78
87 76 68 71 80 86 95 78 63 50 39 32 26 25 30 38 47 54 59 63 69 71 74 77 81 83 83 81 68 69 77 79 84 86 81 81 83 84 74 78 82 80 81
83 69 66 71 73 84 95 77 60 46 36 26 21 23 31 39 47 54 58 62 66 69 71 74 78 80 78 73 67 70 75 79 81 81 83 80 81 85 87 76 76 81 84
76 64 58 60 66 78 85 69 54 40 27 18 16 22 32 42 48 51 55 59 63 66 70 73 75 78 77 71 68 71 77 80 72 68 77 82 77 78 87 82 78 76 88
70 55 55 61 64 82 79 62 46 34 23 13 15 24 33 40 46 49 53 56 61 63 67 72 75 78 83 71 70 71 75 80 83 75 72 74 77 75 74 72 77 81 90
49 49 54 58 68 84 71 56 44 30 18 10 14 24 32 39 43 46 49 53 56 63 68 72 74 82 85 74 67 72 81 79 81 78 77 69 70 68 63 67 72 84 92
41 47 54 68 86 78 64 52 40 28 16 8 13 22 29 35 40 41 47 51 54 61 69 77 82 86 85 82 63 74 79 81 86 85 83 85 75 61 62 63 71 83 68
50 59 70 86 80 68 59 50 39 27 14 7 13 20 25 31 35 42 46 48 52 62 72 79 86 87 87 72 74 77 76 79 87 90 84 82 68 66 59 57 61 69 67
61 72 89 89 77 67 56 48 37 24 13 5 10 15 21 28 33 38 43 47 52 63 73 77 83 89 91 82 82 88 86 82 73 76 73 68 66 66 66 59 57 58 66
71 88 94 89 80 69 60 48 37 25 14 4 6 11 15 20 27 34 39 45 52 58 66 71 76 81 86 94 96 99 101 83 84 79 60 41 43 44 50 47 49 54 62
83 95 95 87 77 69 58 47 35 25 13 5 5 11 17 20 21 28 35 42 45 45 50 56 60 77 85 88 84 86 83 73 77 57 49 38 22 17 27 33 41 38 38
100 102 92 85 78 69 57 45 33 20 10 4 3 7 16 22 23 22 22 31 37 41 41 43 46 58 57 70 75 76 67 64 65 56 69 63 51 36 24 18 27 37 47
Wind_Direction_850mb
245 235 230 227 224 224 225 228 231 234 237 239 248 267 296 319 326 328 321 317 323 328 323 319 318 318 317 317 318 317 317 315 315 312 310 305 300 296 294 293 290 284 271
247 240 231 227 226 226 224 225 228 233 235 239 250 269 296 312 323 322 318 321 323 324 317 315 316 317 317 318 318 317 315 313 316 313 311 309 302 301 300 289 288 284 279
249 243 231 226 224 223 223 224 228 230 234 240 255 275 295 307 315 317 320 321 317 317 314 315 316 317 317 317 316 315 313 310 307 306 288 292 280 305 288 280 265 272 270
247 246 238 229 225 224 221 224 226 229 233 242 257 276 294 306 316 318 319 315 318 321 319 318 317 315 312 312 312 312 309 307 305 302 281 265 269 284 296 286 283 272 263
249 249 247 239 231 224 220 221 225 227 233 246 261 277 293 306 313 314 312 316 322 318 317 316 314 312 310 309 309 307 305 302 301 297 293 282 273 271 265 281 281 276 273
255 256 253 243 235 224 219 221 223 228 233 246 264 279 294 301 308 312 316 320 318 318 318 315 312 311 310 309 308 306 303 301 299 295 286 277 270 268 266 265 276 269 270
263 252 243 237 233 224 217 219 222 226 232 243 258 276 290 300 306 313 314 318 316 317 318 314 312 312 311 310 309 306 304 301 296 290 288 288 280 270 264 263 268 279 268
251 249 246 246 237 224 218 220 221 224 232 243 258 275 288 298 306 310 314 316 316 317 316 316 316 316 314 312 309 307 306 302 296 291 280 278 275 270 265 258 267 267 274
252 252 249 247 237 226 218 220 220 225 232 243 259 275 287 298 303 309 314 313 314 315 318 319 317 316 314 313 311 308 305 299 292 283 279 276 281 277 257 252 260 261 274
242 247 249 248 238 229 218 219 222 227 233 245 260 274 287 295 304 311 313 313 316 319 319 319 317 315 314 313 310 307 303 294 289 281 278 278 277 269 269 272 252 264 262
250 245 252 255 239 226 217 218 221 225 233 247 263 278 290 301 308 314 316 317 317 318 318 316 314 315 315 313 309 306 301 294 288 284 281 279 275 276 274 260 254 258 253
251 246 263 251 232 218 217 217 219 224 232 246 264 280 292 301 308 312 314 316 318 318 317 316 315 316 314 313 310 307 301 294 290 285 281 280 277 274 271 267 262 255 248
254 256 249 239 229 218 216 216 217 221 232 247 262 277 290 301 309 313 317 318 318 318 318 316 315 315 315 314 312 306 303 294 286 285 283 283 278 276 274 268 258 262 259
266 261 247 239 230 221 215 213 212 221 233 247 264 277 293 304 310 316 319 320 320 320 319 318 317 317 317 316 314 305 298 294 294 289 286 291 290 279 272 270 258 261 264
261 256 250 240 229 219 210 210 212 220 232 247 260 279 295 306 314 319 320 321 321 321 321 319 319 321 318 318 313 305 299 295 292 290 289 283 284 278 270 266 262 261 257
269 267 256 243 232 220 206 204 210 219 231 245 262 282 302 313 319 321 322 323 322 323 322 321 321 322 323 323 307 302 298 293 289 288 288 286 281 278 270 262 257 255 258
267 265 255 242 231 217 204 201 207 216 226 242 267 296 311 317 322 326 325 325 325 325 324 324 325 326 330 325 313 306 299 297 294 290 288 289 283 278 271 270 258 253 252
269 265 246 230 219 212 197 198 203 210 219 239 276 304 318 323 326 327 328 329 328 326 326 328 331 332 336 328 317 313 303 299 296 294 291 282 284 285 269 262 261 254 244
270 256 236 222 209 194 190 192 196 201 208 236 294 317 322 327 329 331 332 331 329 327 328 334 336 338 342 331 319 318 315 308 302 302 297 285 294 293 264 257 257 255 244
240 224 214 202 193 184 186 187 187 190 200 243 304 319 325 332 330 332 332 333 328 330 335 337 344 345 341 334 322 324 316 313 309 308 303 295 289 287 269 253 251 252 249
220 204 196 189 181 179 180 181 180 181 197 249 307 323 331 329 326 332 332 330 334 336 340 344 349 345 344 339 326 327 321 316 310 304 299 292 287 283 269 256 253 247 251
196 194 184 178 176 178 179 177 176 178 190 261 318 331 329 326 328 333 330 331 343 343 344 349 346 345 341 337 330 330 325 319 311 306 300 290 281 273 272 262 254 249 243
193 188 179 175 174 175 176 175 175 177 195 251 324 327 329 326 333 335 332 342 352 350 349 348 344 341 343 336 339 335 332 327 322 318 306 291 283 277 270 264 249 245 241
191 183 179 176 174 174 175 178 177 184 197 221 304 316 325 331 338 336 341 351 356 354 350 347 344 338 342 342 343 340 337 338 340 333 334 314 280 273 273 274 252 246 252
190 185 182 178 177 175 177 179 184 188 192 218 299 327 335 340 348 345 352 358 358 357 346 347 345 348 342 345 342 343 341 345 344 351 9 18 25 334 286 276 266 270 255
187 184 183 182 177 176 178 181 184 187 198 224 316 337 338 340 350 2 19 5 358 356 358 354 348 349 348 348 351 352 353 356 359 17 16 14 16 15 353 303 261 255 265